Weather History for Chihuahua, Mexico

Change the Weather History Date:

Tuesday, December 11, 2012

  Actual Average Record
Temperature  
Mean Temperature 45 °F -  
Max Temperature 57 °F 62 °F 75 °F (1996)
Min Temperature 33 °F 31 °F 24 °F (1998)
Degree Days  
Heating Degree Days 20    
Moisture  
Dew Point 19 °F    
Average Humidity 32    
Maximum Humidity 60    
Minimum Humidity 15    
Precipitation  
Precipitation 0.00 in - - ()
Sea Level Pressure  
Sea Level Pressure 30.06 in    
Wind  
Wind Speed 3 mph ()    
Max Wind Speed 13 mph    
Max Gust Speed -    
Visibility 8.1 miles    
Events      
Averages and records for this station are not official NWS values.
T = Trace of Precipitation, MM = Missing Value Source: Averaged Metar Reports

Daily Weather History Graph

Daily Weather History Graph

Search for Another Location

Airport:

Trip Planner

Search our weather history database for the weather conditions in past years. The results will help you decide how hot, cold, wet, or windy it might be!

Date:

Astronomy

Dec. 11, 2012 Rise Set
Actual Time 6:47 AM MST 5:07 PM MST
Civil Twilight 6:21 AM MST 5:33 PM MST
Nautical Twilight 5:51 AM MST 6:03 PM MST
Astronomical Twilight 5:22 AM MST 6:31 PM MST
Moon 4:49 AM MST (12/11) 3:46 PM MST (12/11)
Length of Visible Light 11h 12m
Length of Day
10h 20m
Waning Crescent, 4% of the Moon is Illuminated
Dec 11
Waning Crescent
Dec 13
New
Dec 19
First Quarter
Dec 28
Full
Jan 4
Last Quarter

Hourly Weather History & Observations

Time (MST) Temp. Windchill Dew Point Humidity Pressure Visibility Wind Dir Wind Speed Gust Speed Precip Events Conditions
1:45 AM 38 °F - 22 °F 40% 29.88 in 1 mi Calm Calm - -  
4:50 AM 40 °F - 22 °F 36% 29.91 in 1 mi Calm Calm - -  
5:40 AM 30.2 °F 24.3 °F 17.6 °F 60% 30.08 in 10.0 mi South 5.8 mph - N/A   Scattered Clouds
6:40 AM 30.2 °F - 15.8 °F 55% 30.08 in 10.0 mi Calm Calm - N/A   Partly Cloudy
7:47 AM 33.8 °F - 17.6 °F 52% 30.16 in 10.0 mi Calm Calm - N/A   Partly Cloudy
7:50 AM 39 °F - 27 °F 50% 30.02 in 6 mi Calm Calm - -  
8:49 AM 42.8 °F 41.1 °F 17.6 °F 36% 30.14 in 10.0 mi NNW 3.5 mph - N/A   Clear
9:43 AM 46.4 °F - 17.6 °F 32% 30.14 in 10.0 mi Calm Calm - N/A   Clear
10:40 AM 51.8 °F - 21.2 °F 30% 30.14 in 10.0 mi North 8.1 mph - N/A   Clear
10:45 AM 54 °F - 28 °F 25% 30.03 in 6 mi East 2.2 mph - -  
11:48 AM 55.4 °F - 19.4 °F 25% 30.11 in 10.0 mi NNE 6.9 mph - N/A   Clear
12:44 PM 55.4 °F - 19.4 °F 25% 30.07 in 10.0 mi NNE 10.4 mph - N/A   Clear
1:45 PM 57 °F - 27 °F 20% 29.91 in 6 mi ENE 4.5 mph - -  
1:46 PM 57.2 °F - 19.4 °F 23% 30.07 in 10.0 mi North 11.5 mph - N/A   Clear
2:43 PM 57.2 °F - 19.4 °F 23% 30.05 in 10.0 mi North 11.5 mph - N/A   Clear
3:40 PM 57.2 °F - 17.6 °F 21% 30.06 in 10.0 mi North 10.4 mph - N/A   Clear
4:44 PM 53.6 °F - 15.8 °F 22% 30.09 in 10.0 mi North 12.7 mph - N/A   Clear
4:45 PM 55 °F - 21 °F 15% 29.88 in 6 mi NNE 6.7 mph - -  
5:48 PM 46.4 °F 41.9 °F 12.2 °F 25% 30.09 in 10.0 mi NNE 9.2 mph - N/A   Clear
6:48 PM 42.8 °F - 12.2 °F 29% 30.12 in 10.0 mi Calm Calm - N/A   Clear
7:47 PM 42.8 °F - 12.2 °F 29% 30.18 in 10.0 mi Calm Calm - N/A   Clear
8:43 PM 42.8 °F 41.1 °F 14.0 °F 31% 30.16 in 10.0 mi NW 3.5 mph - N/A   Clear
10:40 PM 41 °F - 19 °F 28% 30.00 in 1 mi West 2.2 mph - -